| time (UTC) | temp F | wind direction | speed MPH | gust MPH | rain 1hr in | rain 24hr in | rain mn in | humidity % | barometer mb |
| 20260502181059 | 77 | 272 | 2.0 | 8.0 | 0.00 | 0.00 | 0.00 | 36 | 1021.6 |
| 20260502180556 | 78 | 276 | 3.0 | 8.0 | 0.00 | 0.00 | 0.00 | 35 | 1021.7 |
| 20260502164055 | 75 | 292 | 1.0 | 3.0 | 0.00 | 0.00 | 0.00 | 35 | 1022.3 |
| 20260502163555 | 74 | 219 | 0.0 | 3.0 | 0.00 | 0.00 | 0.00 | 35 | 1022.3 |
| 20260502163057 | 74 | 74 | 0.0 | 6.0 | 0.00 | 0.00 | 0.00 | 34 | 1022.3 |
| 20260502162558 | 74 | 273 | 0.0 | 9.0 | 0.00 | 0.00 | 0.00 | 36 | 1022.4 |
| 20260502162059 | 73 | 0 | 1.0 | 9.0 | 0.00 | 0.00 | 0.00 | 36 | 1022.3 |
| 20260502161557 | 74 | 68 | 0.0 | 4.0 | 0.00 | 0.00 | 0.00 | 38 | 1022.2 |
| 20260502161055 | 73 | 55 | 1.0 | 4.0 | 0.00 | 0.00 | 0.00 | 37 | 1022.3 |
| 20260502160555 | 72 | 0 | 0.0 | 4.0 | 0.00 | 0.00 | 0.00 | 37 | 1022.2 |
| 20260502152055 | 71 | 317 | 1.0 | 3.0 | 0.00 | 0.00 | 0.00 | 44 | 1022.1 |
| 20260502151603 | 70 | 0 | 0.0 | 3.0 | 0.00 | 0.00 | 0.00 | 44 | 1022.1 |
| 20260502151059 | 71 | 281 | 1.0 | 3.0 | 0.00 | 0.00 | 0.00 | 47 | 1022.0 |
| 20260502150558 | 71 | 315 | 0.0 | 2.0 | 0.00 | 0.00 | 0.00 | 46 | 1022.1 |
| 20260502150109 | 69 | 0 | 0.0 | 2.0 | 0.00 | 0.00 | 0.00 | 46 | 1022.1 |
| 20260502130555 | 51 | 0 | 0.0 | 1.0 | 0.00 | 0.00 | 0.00 | 88 | 1021.5 |
| 20260502123555 | 49 | 0 | 0.0 | 1.0 | 0.00 | 0.00 | 0.00 | 88 | 1021.1 |
| 20260502123056 | 48 | 0 | 0.0 | 1.0 | 0.00 | 0.00 | 0.00 | 88 | 1021.1 |
| 20260502122555 | 48 | 0 | 0.0 | 0.0 | 0.00 | 0.00 | 0.00 | 88 | 1021.0 |
| 20260502122055 | 48 | 0 | 0.0 | 1.0 | 0.00 | 0.00 | 0.00 | 88 | 1020.9 |
| 20260502121554 | 47 | 0 | 0.0 | 1.0 | 0.00 | 0.00 | 0.00 | 88 | 1020.7 |
| 20260502121054 | 47 | 0 | 0.0 | 1.0 | 0.00 | 0.00 | 0.00 | 87 | 1020.7 |
| 20260502120555 | 47 | 0 | 0.0 | 1.0 | 0.00 | 0.00 | 0.00 | 87 | 1020.6 |
| 20260502120111 | 47 | 0 | 0.0 | 1.0 | 0.00 | 0.00 | 0.00 | 87 | 1020.5 |
| 20260502115556 | 47 | 0 | 0.0 | 1.0 | 0.00 | 0.00 | 0.00 | 87 | 1020.4 |
| 20260502115056 | 47 | 0 | 0.0 | 1.0 | 0.00 | 0.00 | 0.00 | 87 | 1020.4 |
| 20260502114602 | 47 | 0 | 0.0 | 1.0 | 0.00 | 0.00 | 0.00 | 87 | 1020.4 |
| 20260502114056 | 47 | 0 | 0.0 | 2.0 | 0.00 | 0.00 | 0.00 | 87 | 1020.3 |
| 20260502113555 | 48 | 0 | 0.0 | 2.0 | 0.00 | 0.00 | 0.00 | 87 | 1020.2 |
| 20260502113057 | 48 | 100 | 0.0 | 1.0 | 0.00 | 0.00 | 0.00 | 87 | 1020.2 |
| 20260502112555 | 48 | 0 | 0.0 | 1.0 | 0.00 | 0.00 | 0.00 | 87 | 1020.1 |
| 20260502112058 | 48 | 0 | 0.0 | 2.0 | 0.00 | 0.00 | 0.00 | 87 | 1020.0 |
| 20260502111600 | 48 | 0 | 0.0 | 2.0 | 0.00 | 0.00 | 0.00 | 87 | 1020.0 |
| 20260502111055 | 48 | 101 | 0.0 | 2.0 | 0.00 | 0.00 | 0.00 | 87 | 1020.0 |
| 20260502110555 | 48 | 0 | 0.0 | 0.0 | 0.00 | 0.00 | 0.00 | 87 | 1020.0 |
| 20260502110057 | 48 | 0 | 0.0 | 1.0 | 0.00 | 0.00 | 0.00 | 87 | 1019.9 |
| 20260502105555 | 48 | 0 | 0.0 | 1.0 | 0.00 | 0.00 | 0.00 | 87 | 1019.8 |
| 20260502105056 | 48 | 0 | 0.0 | 1.0 | 0.00 | 0.00 | 0.00 | 87 | 1019.8 |
| 20260502104558 | 48 | 101 | 0.0 | 1.0 | 0.00 | 0.00 | 0.00 | 87 | 1019.7 |
| 20260502104056 | 48 | 0 | 0.0 | 1.0 | 0.00 | 0.00 | 0.00 | 87 | 1019.6 |
| 20260502103557 | 48 | 0 | 0.0 | 1.0 | 0.00 | 0.00 | 0.00 | 87 | 1019.6 |
| 20260502103101 | 48 | 0 | 0.0 | 1.0 | 0.00 | 0.00 | 0.00 | 86 | 1019.7 |
| 20260502102556 | 48 | 0 | 0.0 | 1.0 | 0.00 | 0.00 | 0.00 | 86 | 1019.6 |
| 20260502102058 | 48 | 0 | 0.0 | 3.0 | 0.00 | 0.00 | 0.00 | 86 | 1019.6 |
| 20260502101557 | 48 | 101 | 0.0 | 3.0 | 0.00 | 0.00 | 0.00 | 86 | 1019.5 |
| 20260502101055 | 49 | 0 | 0.0 | 0.0 | 0.00 | 0.00 | 0.00 | 86 | 1019.3 |
| 20260502100555 | 49 | 0 | 0.0 | 0.0 | 0.00 | 0.00 | 0.00 | 86 | 1019.2 |
| 20260502100115 | 49 | 0 | 0.0 | 0.0 | 0.00 | 0.00 | 0.00 | 86 | 1019.2 |
| 20260502091055 | 50 | 0 | 0.0 | 1.0 | 0.00 | 0.00 | 0.00 | 86 | 1019.2 |
| 20260502090555 | 50 | 0 | 0.0 | 2.0 | 0.00 | 0.00 | 0.00 | 86 | 1019.3 |
| 20260502090103 | 51 | 0 | 0.0 | 2.0 | 0.00 | 0.00 | 0.00 | 86 | 1019.2 |
| 20260502071055 | 53 | 0 | 0.0 | 0.0 | 0.00 | 0.00 | 0.00 | 82 | 1019.5 |
| 20260502070555 | 53 | 0 | 0.0 | 0.0 | 0.00 | 0.00 | 0.00 | 82 | 1019.5 |
| 20260502070059 | 53 | 0 | 0.0 | 0.0 | 0.00 | 0.00 | 0.00 | 82 | 1019.5 |
| 20260502065558 | 53 | 0 | 0.0 | 0.0 | 0.00 | 0.00 | 0.00 | 82 | 1019.5 |
| 20260502065054 | 53 | 0 | 0.0 | 0.0 | 0.00 | 0.00 | 0.00 | 82 | 1019.5 |
| 20260502064606 | 53 | 0 | 0.0 | 1.0 | 0.00 | 0.00 | 0.00 | 81 | 1019.5 |
| 20260502064055 | 53 | 0 | 0.0 | 1.0 | 0.00 | 0.00 | 0.00 | 81 | 1019.5 |
| 20260502063557 | 53 | 0 | 0.0 | 1.0 | 0.00 | 0.00 | 0.00 | 81 | 1019.4 |
| 20260502063054 | 54 | 0 | 0.0 | 0.0 | 0.00 | 0.00 | 0.00 | 80 | 1019.5 |
| 20260502062555 | 54 | 0 | 0.0 | 1.0 | 0.00 | 0.00 | 0.00 | 80 | 1019.5 |
| 20260502062056 | 54 | 0 | 0.0 | 1.0 | 0.00 | 0.00 | 0.00 | 80 | 1019.4 |
| 20260502061557 | 54 | 0 | 0.0 | 0.0 | 0.00 | 0.00 | 0.00 | 79 | 1019.5 |
| 20260502061055 | 54 | 0 | 0.0 | 0.0 | 0.00 | 0.00 | 0.00 | 79 | 1019.5 |
| 20260502060555 | 54 | 0 | 0.0 | 0.0 | 0.00 | 0.00 | 0.00 | 79 | 1019.5 |
| 20260502060059 | 55 | 0 | 0.0 | 0.0 | 0.00 | 0.00 | 0.00 | 78 | 1019.6 |
| 20260502055558 | 55 | 0 | 0.0 | 0.0 | 0.00 | 0.00 | 0.00 | 78 | 1019.5 |
| 20260502055055 | 55 | 0 | 0.0 | 0.0 | 0.00 | 0.00 | 0.00 | 78 | 1019.5 |
| 20260502054556 | 55 | 0 | 0.0 | 0.0 | 0.00 | 0.00 | 0.00 | 78 | 1019.4 |
| 20260502054055 | 56 | 0 | 0.0 | 0.0 | 0.00 | 0.00 | 0.00 | 78 | 1019.4 |
| 20260502053555 | 56 | 0 | 0.0 | 0.0 | 0.00 | 0.00 | 0.00 | 77 | 1019.3 |
| 20260502053058 | 56 | 0 | 0.0 | 0.0 | 0.00 | 0.00 | 0.00 | 77 | 1019.3 |
| 20260502052555 | 56 | 0 | 0.0 | 0.0 | 0.00 | 0.00 | 0.00 | 77 | 1019.3 |
| 20260502052056 | 57 | 0 | 0.0 | 1.0 | 0.00 | 0.00 | 0.00 | 77 | 1019.3 |
| 20260502051639 | 57 | 0 | 0.0 | 1.0 | 0.00 | 0.00 | 0.00 | 77 | 1019.2 |
| 20260502051054 | 57 | 0 | 0.0 | 1.0 | 0.00 | 0.00 | 0.00 | 77 | 1019.1 |
| 20260502050555 | 57 | 0 | 0.0 | 1.0 | 0.00 | 0.00 | 0.00 | 76 | 1019.2 |
| 20260502050054 | 57 | 0 | 0.0 | 1.0 | 0.00 | 0.00 | 0.00 | 76 | 1019.0 |
| 20260502045556 | 58 | 0 | 0.0 | 1.0 | 0.00 | 0.00 | 0.00 | 75 | 1019.0 |
| 20260502045056 | 58 | 0 | 0.0 | 1.0 | 0.00 | 0.00 | 0.00 | 75 | 1018.9 |
| 20260502044605 | 58 | 0 | 0.0 | 0.0 | 0.00 | 0.00 | 0.00 | 75 | 1018.9 |
| 20260502044055 | 59 | 0 | 0.0 | 1.0 | 0.00 | 0.00 | 0.00 | 75 | 1018.9 |
| 20260502043555 | 59 | 0 | 0.0 | 1.0 | 0.00 | 0.00 | 0.00 | 75 | 1019.0 |
| 20260502043103 | 59 | 0 | 0.0 | 1.0 | 0.00 | 0.00 | 0.00 | 75 | 1019.1 |
| 20260502042557 | 59 | 0 | 0.0 | 0.0 | 0.00 | 0.00 | 0.00 | 75 | 1019.1 |
| 20260502042055 | 59 | 0 | 0.0 | 1.0 | 0.00 | 0.00 | 0.00 | 75 | 1019.2 |
| 20260502041556 | 59 | 0 | 0.0 | 1.0 | 0.00 | 0.00 | 0.00 | 75 | 1019.2 |
| 20260502041059 | 60 | 0 | 0.0 | 1.0 | 0.00 | 0.00 | 0.00 | 75 | 1019.1 |
| 20260502040555 | 60 | 0 | 0.0 | 1.0 | 0.00 | 0.00 | 0.00 | 74 | 1019.0 |
| 20260502040055 | 60 | 0 | 0.0 | 0.0 | 0.00 | 0.00 | 0.00 | 74 | 1018.9 |
| 20260502035557 | 60 | 0 | 0.0 | 0.0 | 0.00 | 0.00 | 0.00 | 73 | 1018.9 |
| 20260502035057 | 60 | 0 | 0.0 | 0.0 | 0.00 | 0.00 | 0.00 | 73 | 1018.9 |
| 20260502034554 | 60 | 0 | 0.0 | 0.0 | 0.00 | 0.00 | 0.00 | 73 | 1018.9 |
| 20260502034056 | 60 | 0 | 0.0 | 0.0 | 0.00 | 0.00 | 0.00 | 73 | 1018.9 |
| 20260502033555 | 60 | 0 | 0.0 | 0.0 | 0.00 | 0.00 | 0.00 | 73 | 1018.9 |
| 20260502033057 | 61 | 0 | 0.0 | 0.0 | 0.00 | 0.00 | 0.00 | 73 | 1019.0 |
| 20260502032555 | 61 | 0 | 0.0 | 0.0 | 0.00 | 0.00 | 0.00 | 73 | 1018.9 |
| 20260502032055 | 61 | 0 | 0.0 | 0.0 | 0.00 | 0.00 | 0.00 | 72 | 1018.8 |
| 20260502031610 | 61 | 0 | 0.0 | 0.0 | 0.00 | 0.00 | 0.00 | 72 | 1018.7 |
| 20260502031056 | 61 | 0 | 0.0 | 0.0 | 0.00 | 0.00 | 0.00 | 72 | 1018.8 |
| 20260502030558 | 61 | 0 | 0.0 | 1.0 | 0.00 | 0.00 | 0.00 | 72 | 1018.7 |
| 20260502030057 | 61 | 0 | 0.0 | 1.0 | 0.00 | 0.00 | 0.00 | 71 | 1018.6 |
| 20260502025555 | 61 | 0 | 0.0 | 0.0 | 0.00 | 0.00 | 0.00 | 70 | 1018.6 |
| 20260502025055 | 61 | 0 | 0.0 | 1.0 | 0.00 | 0.00 | 0.00 | 70 | 1018.5 |
| 20260502024557 | 61 | 0 | 0.0 | 1.0 | 0.00 | 0.00 | 0.00 | 69 | 1018.5 |
| 20260502024055 | 61 | 0 | 0.0 | 1.0 | 0.00 | 0.00 | 0.00 | 69 | 1018.4 |
| 20260502023557 | 61 | 0 | 0.0 | 0.0 | 0.00 | 0.00 | 0.00 | 68 | 1018.3 |
| 20260502023055 | 61 | 0 | 0.0 | 0.0 | 0.00 | 0.00 | 0.00 | 67 | 1018.2 |
| 20260502022554 | 61 | 0 | 0.0 | 0.0 | 0.00 | 0.00 | 0.00 | 67 | 1018.1 |
| 20260502022058 | 62 | 0 | 0.0 | 0.0 | 0.00 | 0.00 | 0.00 | 66 | 1018.0 |
| 20260502021555 | 62 | 0 | 0.0 | 0.0 | 0.00 | 0.00 | 0.00 | 66 | 1017.9 |
| 20260502021056 | 62 | 0 | 0.0 | 0.0 | 0.00 | 0.00 | 0.00 | 66 | 1017.9 |
| 20260502020555 | 62 | 0 | 0.0 | 0.0 | 0.00 | 0.00 | 0.00 | 66 | 1017.8 |
| 20260502020105 | 62 | 0 | 0.0 | 0.0 | 0.00 | 0.00 | 0.00 | 66 | 1017.8 |
| 20260502015557 | 63 | 0 | 0.0 | 0.0 | 0.00 | 0.00 | 0.00 | 65 | 1017.6 |
| 20260502015057 | 63 | 0 | 0.0 | 0.0 | 0.00 | 0.00 | 0.00 | 65 | 1017.5 |
| 20260502014551 | 63 | 0 | 0.0 | 0.0 | 0.00 | 0.00 | 0.00 | 66 | 1017.4 |
| 20260502014054 | 63 | 0 | 0.0 | 0.0 | 0.00 | 0.00 | 0.00 | 64 | 1017.3 |
| 20260502013554 | 63 | 0 | 0.0 | 0.0 | 0.00 | 0.00 | 0.00 | 63 | 1017.2 |
| 20260502013055 | 63 | 0 | 0.0 | 0.0 | 0.00 | 0.00 | 0.00 | 62 | 1017.1 |
| 20260502012554 | 63 | 0 | 0.0 | 0.0 | 0.00 | 0.00 | 0.00 | 59 | 1017.0 |
| 20260502012054 | 64 | 0 | 0.0 | 0.0 | 0.00 | 0.00 | 0.00 | 59 | 1017.0 |
| 20260502011552 | 64 | 0 | 0.0 | 0.0 | 0.00 | 0.00 | 0.00 | 59 | 1016.9 |
| 20260502011053 | 64 | 0 | 0.0 | 0.0 | 0.00 | 0.00 | 0.00 | 59 | 1016.8 |
| 20260502010556 | 64 | 0 | 0.0 | 0.0 | 0.00 | 0.00 | 0.00 | 59 | 1016.7 |
| 20260502010057 | 64 | 0 | 0.0 | 1.0 | 0.00 | 0.00 | 0.00 | 59 | 1016.6 |
| 20260502005557 | 64 | 0 | 0.0 | 1.0 | 0.00 | 0.00 | 0.00 | 59 | 1016.6 |
| 20260502005054 | 64 | 0 | 0.0 | 1.0 | 0.00 | 0.00 | 0.00 | 59 | 1016.6 |
| 20260502004554 | 65 | 0 | 0.0 | 1.0 | 0.00 | 0.00 | 0.00 | 60 | 1016.5 |
| 20260502004054 | 65 | 0 | 0.0 | 1.0 | 0.00 | 0.00 | 0.00 | 60 | 1016.6 |
| 20260502003556 | 65 | 0 | 0.0 | 0.0 | 0.00 | 0.00 | 0.00 | 60 | 1016.4 |
| 20260502003054 | 65 | 0 | 0.0 | 0.0 | 0.00 | 0.00 | 0.00 | 59 | 1016.3 |
| 20260502002554 | 65 | 0 | 0.0 | 0.0 | 0.00 | 0.00 | 0.00 | 59 | 1016.2 |
| 20260502002054 | 65 | 0 | 0.0 | 0.0 | 0.00 | 0.00 | 0.00 | 59 | 1016.2 |
| 20260502001553 | 65 | 0 | 0.0 | 0.0 | 0.00 | 0.00 | 0.00 | 59 | 1016.2 |
| 20260502001055 | 65 | 0 | 0.0 | 1.0 | 0.00 | 0.00 | 0.00 | 59 | 1016.0 |
| 20260502000554 | 66 | 0 | 0.0 | 1.0 | 0.00 | 0.00 | 0.00 | 58 | 1016.0 |
| 20260502000053 | 66 | 0 | 0.0 | 0.0 | 0.00 | 0.00 | 0.00 | 59 | 1016.0 |
| 20260501235554 | 66 | 0 | 0.0 | 1.0 | 0.00 | 0.00 | 0.00 | 58 | 1015.8 |
| 20260501235056 | 66 | 0 | 0.0 | 1.0 | 0.00 | 0.00 | 0.00 | 58 | 1015.9 |
| 20260501234557 | 66 | 0 | 0.0 | 2.0 | 0.00 | 0.00 | 0.00 | 59 | 1015.9 |
| 20260501234054 | 66 | 0 | 0.0 | 2.0 | 0.00 | 0.00 | 0.00 | 59 | 1015.8 |
| 20260501233557 | 66 | 0 | 0.0 | 2.0 | 0.00 | 0.00 | 0.00 | 59 | 1015.6 |
| 20260501233055 | 66 | 0 | 0.0 | 2.0 | 0.00 | 0.00 | 0.00 | 58 | 1015.6 |
| 20260501232553 | 66 | 0 | 0.0 | 2.0 | 0.00 | 0.00 | 0.00 | 57 | 1015.6 |
| 20260501232056 | 66 | 0 | 0.0 | 2.0 | 0.00 | 0.00 | 0.00 | 57 | 1015.5 |
| 20260501231559 | 66 | 0 | 0.0 | 2.0 | 0.00 | 0.00 | 0.00 | 57 | 1015.5 |
| 20260501231055 | 66 | 0 | 0.0 | 3.0 | 0.00 | 0.00 | 0.00 | 57 | 1015.5 |
| 20260501230555 | 66 | 80 | 1.0 | 3.0 | 0.00 | 0.00 | 0.00 | 55 | 1015.5 |
| 20260501230054 | 66 | 0 | 0.0 | 3.0 | 0.00 | 0.00 | 0.00 | 55 | 1015.5 |
| 20260501225555 | 67 | 80 | 0.0 | 3.0 | 0.00 | 0.00 | 0.00 | 56 | 1015.5 |
| 20260501225055 | 67 | 0 | 0.0 | 3.0 | 0.00 | 0.00 | 0.00 | 57 | 1015.5 |
| 20260501224557 | 66 | 0 | 0.0 | 2.0 | 0.00 | 0.00 | 0.00 | 56 | 1015.5 |
| 20260501224055 | 66 | 0 | 0.0 | 2.0 | 0.00 | 0.00 | 0.00 | 57 | 1015.5 |
| 20260501223555 | 66 | 0 | 0.0 | 4.0 | 0.00 | 0.00 | 0.00 | 57 | 1015.4 |
| 20260501223056 | 66 | 81 | 0.0 | 4.0 | 0.00 | 0.00 | 0.00 | 56 | 1015.4 |
| 20260501222556 | 66 | 81 | 1.0 | 4.0 | 0.00 | 0.00 | 0.00 | 56 | 1015.4 |
| 20260501222057 | 67 | 89 | 1.0 | 4.0 | 0.00 | 0.00 | 0.00 | 56 | 1015.4 |
| 20260501221555 | 67 | 85 | 1.0 | 5.0 | 0.00 | 0.00 | 0.00 | 56 | 1015.3 |
| 20260501221054 | 67 | 81 | 1.0 | 5.0 | 0.00 | 0.00 | 0.00 | 56 | 1015.2 |
| 20260501220555 | 67 | 100 | 0.0 | 4.0 | 0.00 | 0.00 | 0.00 | 57 | 1015.1 |
| 20260501220055 | 67 | 0 | 1.0 | 4.0 | 0.00 | 0.00 | 0.00 | 57 | 1015.3 |
| 20260501215558 | 67 | 92 | 0.0 | 6.0 | 0.00 | 0.00 | 0.00 | 57 | 1015.3 |
| 20260501215055 | 67 | 62 | 1.0 | 6.0 | 0.00 | 0.00 | 0.00 | 57 | 1015.4 |
| 20260501214604 | 67 | 85 | 1.0 | 6.0 | 0.00 | 0.00 | 0.00 | 57 | 1015.4 |
| 20260501214056 | 66 | 0 | 2.0 | 5.0 | 0.00 | 0.00 | 0.00 | 56 | 1015.5 |
| 20260501213555 | 66 | 70 | 1.0 | 5.0 | 0.00 | 0.00 | 0.00 | 58 | 1015.5 |
| 20260501213102 | 66 | 57 | 1.0 | 4.0 | 0.00 | 0.00 | 0.00 | 57 | 1015.6 |
| 20260501212555 | 66 | 83 | 1.0 | 4.0 | 0.00 | 0.00 | 0.00 | 58 | 1015.6 |
| 20260501212100 | 66 | 76 | 1.0 | 5.0 | 0.00 | 0.00 | 0.00 | 58 | 1015.7 |
| 20260501211558 | 66 | 74 | 1.0 | 5.0 | 0.00 | 0.00 | 0.00 | 59 | 1015.7 |
| 20260501211055 | 66 | 76 | 0.0 | 6.0 | 0.00 | 0.00 | 0.00 | 59 | 1015.8 |
| 20260501210555 | 65 | 0 | 1.0 | 6.0 | 0.00 | 0.00 | 0.00 | 59 | 1015.9 |
| 20260501210055 | 65 | 66 | 2.0 | 7.0 | 0.00 | 0.00 | 0.00 | 59 | 1016.0 |
| 20260501205556 | 65 | 80 | 3.0 | 7.0 | 0.00 | 0.00 | 0.00 | 59 | 1016.1 |
| 20260501205055 | 65 | 11 | 2.0 | 6.0 | 0.00 | 0.00 | 0.00 | 59 | 1016.1 |
| 20260501204600 | 65 | 59 | 2.0 | 9.0 | 0.00 | 0.00 | 0.00 | 59 | 1016.2 |
| 20260501204054 | 65 | 0 | 2.0 | 9.0 | 0.00 | 0.00 | 0.00 | 59 | 1016.2 |
| 20260501203555 | 65 | 61 | 2.0 | 8.0 | 0.00 | 0.00 | 0.00 | 59 | 1016.3 |
| 20260501203059 | 65 | 82 | 3.0 | 10.0 | 0.00 | 0.00 | 0.00 | 58 | 1016.4 |
| 20260501202555 | 65 | 65 | 4.0 | 11.0 | 0.00 | 0.00 | 0.00 | 58 | 1016.4 |
| 20260501202055 | 65 | 78 | 3.0 | 11.0 | 0.00 | 0.00 | 0.00 | 58 | 1016.5 |
| 20260501201554 | 65 | 62 | 3.0 | 11.0 | 0.00 | 0.00 | 0.00 | 57 | 1016.5 |
| 20260501201059 | 65 | 31 | 2.0 | 11.0 | 0.00 | 0.00 | 0.00 | 58 | 1016.3 |
| 20260501200559 | 65 | 77 | 3.0 | 10.0 | 0.00 | 0.00 | 0.00 | 57 | 1016.3 |
| 20260501200057 | 65 | 57 | 2.0 | 10.0 | 0.00 | 0.00 | 0.00 | 58 | 1016.3 |
| 20260501195555 | 65 | 58 | 2.0 | 11.0 | 0.00 | 0.00 | 0.00 | 58 | 1016.3 |
| 20260501195058 | 65 | 92 | 4.0 | 12.0 | 0.00 | 0.00 | 0.00 | 57 | 1016.1 |
| 20260501194603 | 65 | 59 | 5.0 | 12.0 | 0.00 | 0.00 | 0.00 | 56 | 1016.0 |
| 20260501194055 | 66 | 74 | 2.0 | 13.0 | 0.00 | 0.00 | 0.00 | 59 | 1016.0 |
| 20260501193558 | 65 | 24 | 3.0 | 13.0 | 0.00 | 0.00 | 0.00 | 59 | 1015.9 |
| 20260501193055 | 65 | 342 | 4.0 | 13.0 | 0.00 | 0.00 | 0.00 | 57 | 1015.8 |
| 20260501192555 | 66 | 51 | 3.0 | 9.0 | 0.00 | 0.00 | 0.00 | 58 | 1015.8 |
| 20260501192056 | 66 | 46 | 3.0 | 10.0 | 0.00 | 0.00 | 0.00 | 57 | 1015.9 |
| 20260501191604 | 66 | 68 | 3.0 | 10.0 | 0.00 | 0.00 | 0.00 | 56 | 1016.1 |
| 20260501191056 | 66 | 47 | 4.0 | 11.0 | 0.00 | 0.00 | 0.00 | 54 | 1016.4 |
| 20260501190559 | 66 | 94 | 4.0 | 12.0 | 0.00 | 0.00 | 0.00 | 54 | 1016.4 |
| 20260501190114 | 66 | 61 | 4.0 | 12.0 | 0.00 | 0.00 | 0.00 | 54 | 1016.1 |
| 20260501185555 | 66 | 78 | 6.0 | 13.0 | 0.00 | 0.00 | 0.00 | 54 | 1015.9 |
| 20260501185056 | 66 | 55 | 4.0 | 13.0 | 0.00 | 0.00 | 0.00 | 55 | 1015.9 |
| 20260501184555 | 66 | 55 | 5.0 | 12.0 | 0.00 | 0.00 | 0.00 | 55 | 1016.0 |
| 20260501184057 | 66 | 31 | 5.0 | 14.0 | 0.00 | 0.00 | 0.00 | 53 | 1016.3 |
| 20260501183558 | 66 | 93 | 5.0 | 14.0 | 0.00 | 0.00 | 0.00 | 55 | 1016.4 |
| 20260501183056 | 66 | 82 | 5.0 | 14.0 | 0.00 | 0.00 | 0.00 | 54 | 1016.3 |
| 20260501182555 | 66 | 38 | 5.0 | 15.0 | 0.00 | 0.00 | 0.00 | 55 | 1016.4 |
| 20260501182055 | 66 | 63 | 8.0 | 18.0 | 0.00 | 0.00 | 0.00 | 53 | 1016.5 |
| 20260501181557 | 66 | 82 | 7.0 | 18.0 | 0.00 | 0.00 | 0.00 | 55 | 1016.4 |